N81TF KPDK-KRDU

Flight info

Callsign N81TF
Flight time 0h 58m
Altitude 39000
Route EATWO IRQ PYRES DMSTR2
Aircraft CL60/M-SADE3FGHIJ3J4J7P2RWXY/HB1D1

Departure

Time 2026-05-07 01:42
Airport DeKalb Peachtree Airport (KPDK)

Arrival

Time 2026-05-07 02:41
Airport Raleigh-Durham International Airport (KRDU)
Time Latitude Longitude Altitude Speed Heading
2026-05-07 01:15 33.88066 -84.30269 983 ft 0 kts 90°
2026-05-07 01:38 33.88066 -84.30256 982 ft 5 kts 90°
2026-05-07 01:38 33.88065 -84.30205 980 ft 0 kts 94°
2026-05-07 01:38 33.88036 -84.30201 979 ft 7 kts 194°
2026-05-07 01:38 33.87988 -84.30167 977 ft 8 kts 148°
2026-05-07 01:39 33.87923 -84.30188 978 ft 11 kts 201°
2026-05-07 01:39 33.87875 -84.30190 979 ft 3 kts 123°
2026-05-07 01:39 33.87873 -84.30187 979 ft 0 kts 116°
2026-05-07 01:41 33.87864 -84.30158 979 ft 6 kts 116°
2026-05-07 01:41 33.87823 -84.30141 979 ft 0 kts 198°
2026-05-07 01:42 33.87448 -84.30306 993 ft 113 kts 202°
2026-05-07 01:42 33.86483 -84.30717 1343 ft 168 kts 198°
2026-05-07 01:42 33.85323 -84.30705 2330 ft 183 kts 164°
2026-05-07 01:43 33.84408 -84.29761 3577 ft 196 kts 133°
2026-05-07 01:43 33.84007 -84.27949 3358 ft 248 kts 91°
2026-05-07 01:43 33.84207 -84.25882 3087 ft 245 kts 86°
2026-05-07 01:43 33.84458 -84.23824 3305 ft 262 kts 84°
2026-05-07 01:44 33.84740 -84.21626 4358 ft 269 kts 84°
2026-05-07 01:44 33.85028 -84.19450 4826 ft 263 kts 84°
2026-05-07 01:44 33.85312 -84.17293 4912 ft 261 kts 83°
2026-05-07 01:44 33.85597 -84.15146 4932 ft 254 kts 83°
2026-05-07 01:45 33.85883 -84.13046 5016 ft 256 kts 84°
2026-05-07 01:45 33.86184 -84.10928 4939 ft 258 kts 81°
2026-05-07 01:45 33.86799 -84.08907 4903 ft 256 kts 62°
2026-05-07 01:45 33.87206 -84.06866 4952 ft 249 kts 100°
2026-05-07 01:46 33.86835 -84.04878 4964 ft 246 kts 113°
2026-05-07 01:46 33.86336 -84.02902 4830 ft 246 kts 115°
2026-05-07 01:46 33.85822 -84.00859 4816 ft 263 kts 112°
2026-05-07 01:46 33.85279 -83.98646 5413 ft 289 kts 114°
2026-05-07 01:47 33.84669 -83.96365 6818 ft 294 kts 114°
2026-05-07 01:47 33.83879 -83.94214 8390 ft 281 kts 131°
2026-05-07 01:47 33.82770 -83.92401 9898 ft 275 kts 134°
2026-05-07 01:47 33.81617 -83.90519 10980 ft 288 kts 134°
2026-05-07 01:48 33.80411 -83.88557 12031 ft 300 kts 134°
2026-05-07 01:48 33.79154 -83.86541 13069 ft 310 kts 134°
2026-05-07 01:48 33.77836 -83.84432 13732 ft 316 kts 135°
2026-05-07 01:48 33.76516 -83.82315 14101 ft 319 kts 133°
2026-05-07 01:49 33.75145 -83.80141 14308 ft 346 kts 134°
2026-05-07 01:49 33.73545 -83.77713 14318 ft 388 kts 134°
2026-05-07 01:49 33.71846 -83.75132 15240 ft 397 kts 133°
2026-05-07 01:49 33.70129 -83.72540 16240 ft 401 kts 134°
2026-05-07 01:50 33.68384 -83.69900 17265 ft 405 kts 134°
2026-05-07 01:50 33.66651 -83.67261 18130 ft 412 kts 133°
2026-05-07 01:50 33.64840 -83.64528 18990 ft 418 kts 134°
2026-05-07 01:50 33.63035 -83.61786 19805 ft 424 kts 133°
2026-05-07 01:51 33.61361 -83.58825 20600 ft 436 kts 122°
2026-05-07 01:51 33.60269 -83.55425 21322 ft 448 kts 106°
2026-05-07 01:51 33.59936 -83.51668 22031 ft 457 kts 88°
2026-05-07 01:51 33.60211 -83.47868 22645 ft 465 kts 83°
2026-05-07 01:52 33.60544 -83.44018 23306 ft 471 kts 83°
2026-05-07 01:52 33.60881 -83.40048 24078 ft 474 kts 83°
2026-05-07 01:52 33.61210 -83.36135 24849 ft 477 kts 83°
2026-05-07 01:52 33.61528 -83.32360 25474 ft 481 kts 83°
2026-05-07 01:53 33.61850 -83.28512 26055 ft 486 kts 83°
2026-05-07 01:53 33.62204 -83.24281 26656 ft 492 kts 84°
2026-05-07 01:53 33.62529 -83.20369 27286 ft 494 kts 83°
2026-05-07 01:53 33.62880 -83.16125 27886 ft 498 kts 83°
2026-05-07 01:54 33.63221 -83.11974 28375 ft 503 kts 83°
2026-05-07 01:54 33.63565 -83.07790 28846 ft 508 kts 84°
2026-05-07 01:54 33.63912 -83.03529 28960 ft 520 kts 83°
2026-05-07 01:54 33.64270 -82.99137 28961 ft 534 kts 84°
2026-05-07 01:55 33.64635 -82.94617 28959 ft 545 kts 83°
2026-05-07 01:55 33.65368 -82.85488 28952 ft 554 kts 83°
2026-05-07 01:56 33.66094 -82.76361 28956 ft 552 kts 84°
2026-05-07 01:56 33.66812 -82.67246 28967 ft 551 kts 83°
2026-05-07 01:57 33.67518 -82.58202 28959 ft 552 kts 83°
2026-05-07 01:57 33.68230 -82.48997 28957 ft 552 kts 83°
2026-05-07 01:58 33.68929 -82.39869 28952 ft 553 kts 83°
2026-05-07 01:58 33.69621 -82.30750 28946 ft 553 kts 82°
2026-05-07 01:59 33.70312 -82.21543 28933 ft 553 kts 83°
2026-05-07 01:59 33.71629 -82.12534 28927 ft 548 kts 70°
2026-05-07 02:00 33.73854 -82.03786 28924 ft 548 kts 69°
2026-05-07 02:00 33.76070 -81.95006 28929 ft 549 kts 69°
2026-05-07 02:01 33.78278 -81.86208 28946 ft 548 kts 69°
2026-05-07 02:01 33.80471 -81.77443 28956 ft 548 kts 69°
2026-05-07 02:02 33.82660 -81.68665 28960 ft 549 kts 69°
2026-05-07 02:02 33.84853 -81.59844 28956 ft 549 kts 69°
2026-05-07 02:03 33.87700 -81.51461 28950 ft 537 kts 52°
2026-05-07 02:03 33.91572 -81.43758 28946 ft 538 kts 53°
2026-05-07 02:04 33.95448 -81.36007 28947 ft 539 kts 53°
2026-05-07 02:04 33.99290 -81.28309 28946 ft 538 kts 53°
2026-05-07 02:05 34.02845 -81.21164 28946 ft 538 kts 53°
2026-05-07 02:05 34.06683 -81.13444 28950 ft 538 kts 53°
2026-05-07 02:06 34.10531 -81.05692 28943 ft 539 kts 53°
2026-05-07 02:06 34.14350 -80.97983 28947 ft 538 kts 53°
2026-05-07 02:07 34.18176 -80.90237 28944 ft 538 kts 54°
2026-05-07 02:07 34.23912 -80.78597 28939 ft 538 kts 54°
2026-05-07 02:08 34.27728 -80.70834 28947 ft 538 kts 54°
2026-05-07 02:08 34.31524 -80.63094 28952 ft 537 kts 55°
2026-05-07 02:09 34.35335 -80.55305 28953 ft 536 kts 55°
2026-05-07 02:09 34.39128 -80.47537 28960 ft 535 kts 55°
2026-05-07 02:10 34.42892 -80.39807 28719 ft 526 kts 55°
2026-05-07 02:10 34.44752 -80.35980 28326 ft 524 kts 54°
2026-05-07 02:10 34.46573 -80.32230 27631 ft 519 kts 56°
2026-05-07 02:11 34.48385 -80.28495 26887 ft 516 kts 56°
2026-05-07 02:11 34.50209 -80.24733 26183 ft 511 kts 55°
2026-05-07 02:11 34.52014 -80.21007 25647 ft 509 kts 55°
2026-05-07 02:11 34.53795 -80.17328 25350 ft 506 kts 56°
2026-05-07 02:12 34.55578 -80.13637 25141 ft 501 kts 55°
2026-05-07 02:12 34.57313 -80.10041 24962 ft 496 kts 55°
2026-05-07 02:12 34.59052 -80.06438 24616 ft 496 kts 56°
2026-05-07 02:12 34.60804 -80.02805 24214 ft 496 kts 55°
2026-05-07 02:13 34.62533 -79.99213 24027 ft 492 kts 55°
2026-05-07 02:13 34.64254 -79.95632 23948 ft 486 kts 55°
2026-05-07 02:13 34.65946 -79.92109 23953 ft 480 kts 55°
2026-05-07 02:13 34.67699 -79.88671 23961 ft 468 kts 49°
2026-05-07 02:14 34.69871 -79.85825 23704 ft 456 kts 34°
2026-05-07 02:14 34.72402 -79.83531 23344 ft 448 kts 30°
2026-05-07 02:14 34.74890 -79.81342 23030 ft 445 kts 30°
2026-05-07 02:14 34.77420 -79.79105 22677 ft 442 kts 30°
2026-05-07 02:15 34.79910 -79.76904 22320 ft 439 kts 30°
2026-05-07 02:15 34.82348 -79.74747 21982 ft 436 kts 29°
2026-05-07 02:15 34.84764 -79.72604 21635 ft 424 kts 29°
2026-05-07 02:15 34.87142 -79.70491 21300 ft 410 kts 28°
2026-05-07 02:16 34.89425 -79.68466 20980 ft 406 kts 29°
2026-05-07 02:16 34.91692 -79.66459 20663 ft 405 kts 29°
2026-05-07 02:16 34.93965 -79.64444 20338 ft 403 kts 29°
2026-05-07 02:16 34.96238 -79.62427 20007 ft 400 kts 29°
2026-05-07 02:17 34.98497 -79.60422 19686 ft 398 kts 29°
2026-05-07 02:17 35.00720 -79.58447 19366 ft 397 kts 28°
2026-05-07 02:17 35.02940 -79.56474 19053 ft 395 kts 29°
2026-05-07 02:17 35.05173 -79.54488 18743 ft 395 kts 28°
2026-05-07 02:18 35.07397 -79.52510 18423 ft 394 kts 29°
2026-05-07 02:18 35.09617 -79.50555 18117 ft 389 kts 26°
2026-05-07 02:18 35.11991 -79.49154 17822 ft 373 kts
2026-05-07 02:18 35.14511 -79.48600 17561 ft 361 kts 358°
2026-05-07 02:19 35.17025 -79.48270 17253 ft 361 kts 358°
2026-05-07 02:19 35.19535 -79.47932 16975 ft 361 kts 358°
2026-05-07 02:19 35.22013 -79.47598 16683 ft 359 kts 358°
2026-05-07 02:19 35.23740 -79.47361 16468 ft 352 kts 358°
2026-05-07 02:20 35.25869 -79.47066 16261 ft 340 kts 358°
2026-05-07 02:20 35.28197 -79.46747 15984 ft 330 kts 357°
2026-05-07 02:20 35.30441 -79.46441 15735 ft 320 kts 357°
2026-05-07 02:20 35.32639 -79.46141 15473 ft 313 kts 356°
2026-05-07 02:21 35.34788 -79.45599 15210 ft 326 kts 11°
2026-05-07 02:21 35.36807 -79.44231 14946 ft 341 kts 31°
2026-05-07 02:21 35.38680 -79.42355 14652 ft 344 kts 33°
2026-05-07 02:21 35.40525 -79.40488 14382 ft 345 kts 33°
2026-05-07 02:22 35.42358 -79.38637 14113 ft 344 kts 33°
2026-05-07 02:22 35.44199 -79.36776 13832 ft 342 kts 32°
2026-05-07 02:22 35.46035 -79.34920 13557 ft 341 kts 34°
2026-05-07 02:22 35.47872 -79.33063 13294 ft 341 kts 34°
2026-05-07 02:23 35.49706 -79.31209 13024 ft 339 kts 34°
2026-05-07 02:23 35.51529 -79.29364 12761 ft 337 kts 34°
2026-05-07 02:23 35.53360 -79.27512 12486 ft 337 kts 34°
2026-05-07 02:23 35.55168 -79.25681 12220 ft 335 kts 35°
2026-05-07 02:24 35.56953 -79.23873 11953 ft 332 kts 34°
2026-05-07 02:24 35.58730 -79.22073 11691 ft 331 kts 35°
2026-05-07 02:24 35.60504 -79.20274 11428 ft 328 kts 35°
2026-05-07 02:24 35.62286 -79.18467 11171 ft 327 kts 35°
2026-05-07 02:25 35.63873 -79.16501 10918 ft 330 kts 49°
2026-05-07 02:25 35.65234 -79.14229 10642 ft 328 kts 51°
2026-05-07 02:25 35.66596 -79.11938 10390 ft 326 kts 51°
2026-05-07 02:25 35.67936 -79.09689 10125 ft 325 kts 51°
2026-05-07 02:26 35.69269 -79.07451 9869 ft 323 kts 51°
2026-05-07 02:26 35.70586 -79.05241 9616 ft 321 kts 51°
2026-05-07 02:26 35.71917 -79.03004 9372 ft 319 kts 51°
2026-05-07 02:26 35.73224 -79.00810 9094 ft 319 kts 51°
2026-05-07 02:27 35.74547 -78.98586 8838 ft 316 kts 51°
2026-05-07 02:27 35.75854 -78.96389 8588 ft 316 kts 51°
2026-05-07 02:27 35.77144 -78.94219 8348 ft 314 kts 51°
2026-05-07 02:27 35.78430 -78.91993 8081 ft 315 kts 56°
2026-05-07 02:28 35.79216 -78.89511 7810 ft 303 kts 80°
2026-05-07 02:28 35.79470 -78.87024 7676 ft 284 kts 84°
2026-05-07 02:28 35.79701 -78.84628 7514 ft 284 kts 83°
2026-05-07 02:28 35.79935 -78.82227 7287 ft 280 kts 84°
2026-05-07 02:29 35.80168 -78.79836 7127 ft 278 kts 84°
2026-05-07 02:29 35.80400 -78.77451 6925 ft 278 kts 83°
2026-05-07 02:29 35.80631 -78.75074 6729 ft 277 kts 83°
2026-05-07 02:29 35.80970 -78.72768 6437 ft 274 kts 69°
2026-05-07 02:30 35.81932 -78.70788 6227 ft 262 kts 44°
2026-05-07 02:30 35.83199 -78.69202 6014 ft 256 kts 41°
2026-05-07 02:30 35.84432 -78.67683 5865 ft 251 kts 41°
2026-05-07 02:30 35.85689 -78.66132 5508 ft 253 kts 41°
2026-05-07 02:31 35.86949 -78.64578 5147 ft 255 kts 41°
2026-05-07 02:31 35.88201 -78.63030 4984 ft 252 kts 41°
2026-05-07 02:31 35.89440 -78.61498 4977 ft 247 kts 41°
2026-05-07 02:31 35.90608 -78.60047 5022 ft 225 kts 41°
2026-05-07 02:32 35.91691 -78.58702 4983 ft 215 kts 40°
2026-05-07 02:32 35.92742 -78.57402 4490 ft 219 kts 41°
2026-05-07 02:32 35.93821 -78.56069 4050 ft 219 kts 41°
2026-05-07 02:32 35.94907 -78.54726 3626 ft 220 kts 42°
2026-05-07 02:33 35.95976 -78.53404 3273 ft 218 kts 42°
2026-05-07 02:33 35.97043 -78.52080 3014 ft 213 kts 42°
2026-05-07 02:33 35.98107 -78.50772 2981 ft 215 kts 40°
2026-05-07 02:33 35.99389 -78.49924 2974 ft 205 kts
2026-05-07 02:34 36.00699 -78.50258 2991 ft 186 kts 318°
2026-05-07 02:34 36.01688 -78.51236 3009 ft 181 kts 310°
2026-05-07 02:34 36.02644 -78.52254 3005 ft 181 kts 309°
2026-05-07 02:34 36.03536 -78.53331 2989 ft 174 kts 294°
2026-05-07 02:35 36.03728 -78.54698 2978 ft 160 kts 256°
2026-05-07 02:35 36.03421 -78.56036 3003 ft 160 kts 250°
2026-05-07 02:35 36.03073 -78.57343 2994 ft 160 kts 251°
2026-05-07 02:35 36.02718 -78.58654 2994 ft 161 kts 250°
2026-05-07 02:36 36.02297 -78.59947 2992 ft 161 kts 241°
2026-05-07 02:36 36.01613 -78.61043 2989 ft 162 kts 229°
2026-05-07 02:36 36.00802 -78.62030 2996 ft 163 kts 227°
2026-05-07 02:36 35.99989 -78.63000 2991 ft 162 kts 226°
2026-05-07 02:37 35.99173 -78.64000 2994 ft 163 kts 227°
2026-05-07 02:37 35.98370 -78.64995 2990 ft 163 kts 228°
2026-05-07 02:37 35.97564 -78.65994 2971 ft 164 kts 227°
2026-05-07 02:37 35.96753 -78.67003 2773 ft 162 kts 227°
2026-05-07 02:38 35.95967 -78.67974 2571 ft 161 kts 227°
2026-05-07 02:38 35.95159 -78.68980 2377 ft 163 kts 227°
2026-05-07 02:38 35.94360 -78.69968 2169 ft 163 kts 227°
2026-05-07 02:38 35.93562 -78.70956 1962 ft 164 kts 227°
2026-05-07 02:39 35.92756 -78.71953 1767 ft 159 kts 227°
2026-05-07 02:39 35.92013 -78.72868 1574 ft 142 kts 227°
2026-05-07 02:39 35.91324 -78.73721 1378 ft 139 kts 227°
2026-05-07 02:39 35.90642 -78.74567 1208 ft 134 kts 226°
2026-05-07 02:40 35.89983 -78.75382 1029 ft 127 kts 225°
2026-05-07 02:40 35.89395 -78.76105 813 ft 117 kts 226°
2026-05-07 02:40 35.88806 -78.76779 656 ft 116 kts 227°
2026-05-07 02:40 35.88268 -78.77502 532 ft 114 kts 225°
2026-05-07 02:41 35.87703 -78.78207 431 ft 107 kts 224°
2026-05-07 02:41 35.87286 -78.78715 425 ft 56 kts 226°
2026-05-07 02:41 35.87086 -78.78969 417 ft 30 kts 226°
2026-05-07 02:41 35.87040 -78.79099 413 ft 15 kts 308°
2026-05-07 02:42 35.87075 -78.79142 413 ft 0 kts 342°
2026-05-07 02:42 35.87100 -78.79135 414 ft 11 kts 29°
2026-05-07 02:42 35.87171 -78.79049 417 ft 16 kts 46°
2026-05-07 02:43 35.87264 -78.78939 419 ft 20 kts 43°
2026-05-07 02:43 35.87355 -78.78829 424 ft 17 kts 44°
2026-05-07 02:43 35.87423 -78.78746 424 ft 13 kts 46°
2026-05-07 02:43 35.87499 -78.78648 427 ft 17 kts 46°
2026-05-07 02:44 35.87575 -78.78556 428 ft 17 kts 45°
2026-05-07 02:44 35.87661 -78.78451 428 ft 16 kts 45°
2026-05-07 02:44 35.87738 -78.78410 429 ft 14 kts 338°
2026-05-07 02:44 35.87816 -78.78381 429 ft 8 kts 358°
2026-05-07 02:45 35.87884 -78.78441 427 ft 16 kts 312°
2026-05-07 02:45 35.87958 -78.78497 425 ft 11 kts 24°
2026-05-07 02:45 35.87976 -78.78467 425 ft 4 kts 54°
2026-05-07 02:45 35.87988 -78.78450 425 ft 0 kts 47°
2026-05-07 02:46 35.87994 -78.78442 425 ft 0 kts 45°